"Pseudo-MPEC" for C0T6D75

Created 2024 Jun 12 4:22:04 UT using Find_Orb

Click here for an explanation of pseudo-MPECs

 
 Astrometry: 
     C0T6D75* C2024 06 07.15527509 26 42.025+35 47 08.48   ~674q       VNEOCPV00
     C0T6D75  C2024 06 07.16089809 26 42.468+35 46 56.93   ~674q 22.34GVNEOCPV00
     C0T6D75  C2024 06 07.16650109 26 42.886+35 46 44.18   ~674q 21.80GVNEOCPV00
     C0T6D75  C2024 06 07.17209809 26 43.382+35 46 30.32   ~674q       VNEOCPV00

Station data:
(V00) Kitt Peak-Bok  (N31.963125 W111.600190)  US/Arizona.  Observers T. A.
   Pruyne, B. M. Africano, E. J. Christensen, G. A. Farneth, D. C. Fuls, A.
   R. Gibbs, A. D. Grauer, H. Gröller, J. A. Johnson, R. A. Kowalski, S. M.
   Larson, G. J. Leonard, D. Rankin, R. L. Seaman, F. C. Shelly, K. W.
   Wierzchoś. 2.25-m reflector + 4x4K mosaic CCD.

Orbital elements:  C0T6D75
   Perihelion 2024 Jul 26.37516 +/- 68.1 TT =  9:00:13 (JD 2460517.87516)
Epoch 2024 Jun  7.0 TT = JDT 2460468.5   Earth MOID: 0.2967   Me: 0.0204
M 232.55035063 +/- 70               (J2000 ecliptic)             AutoNEOCP
n   2.58125056 +/- 1.23             Peri.  319.05937 +/- 90
a   0.52631927 +/- 0.168            Node    54.65898 +/- 80
e   0.8508374 +/- 0.218             Incl.   35.37111 +/- 51
P   0.38/139.46d           H 20.44  G  0.15   U 12.9  SR
q 0.07850715 +/- 0.451    Q 0.97413139 +/- 3.25
From 4 observations 2024 June 7 (24.2 min); mean residual 0".44
Residuals in arcseconds: 
240607 V00  .10+  .60-    240607 V00  .35-  .57+    
240607 V00  .02+  .61+    240607 V00  .23+  .59-    

Ephemerides (geocentric):
Date (UTC) HH   RA             Dec           delta  r     elong  mag " sig PA
---- --------  ------------   ------------  ------ ------ -----  --- --------
2024 06 12 04  09 32 47.013   +32 44 59.98  .87024 .88525  55.4 22.3 2717  19
2024 06 12 05  09 32 49.650   +32 43 31.47  .87041 .88495  55.3 22.3 2749  19
2024 06 12 06  09 32 52.281   +32 42 03.01  .87058 .88465  55.3 22.3 2780  19
2024 06 12 07  09 32 54.905   +32 40 34.58  .87075 .88435  55.3 22.3 2812  20
2024 06 12 08  09 32 57.522   +32 39 06.19  .87092 .88405  55.3 22.3 2843  20
2024 06 12 09  09 33 00.133   +32 37 37.83  .87108 .88375  55.2 22.3 2875  20
2024 06 12 10  09 33 02.738   +32 36 09.51  .87125 .88344  55.2 22.3 2907  20
2024 06 12 11  09 33 05.337   +32 34 41.23  .87142 .88314  55.2 22.3 2939  20
2024 06 12 12  09 33 07.929   +32 33 12.99  .87159 .88284  55.2 22.3 2971  20
2024 06 12 13  09 33 10.515   +32 31 44.78  .87175 .88254  55.1 22.3 3004  20
2024 06 12 14  09 33 13.094   +32 30 16.61  .87192 .88223  55.1 22.3 3036  20
2024 06 12 15  09 33 15.667   +32 28 48.48  .87208 .88193  55.1 22.3 3069  20
2024 06 12 16  09 33 18.233   +32 27 20.38  .87225 .88162  55.1 22.3 3102  20
2024 06 12 17  09 33 20.794   +32 25 52.32  .87242 .88132  55.0 22.3 3134  20
2024 06 12 18  09 33 23.347   +32 24 24.30  .87258 .88101  55.0 22.3 3167  20
2024 06 12 19  09 33 25.895   +32 22 56.31  .87275 .88070  55.0 22.3 3201  20
2024 06 12 20  09 33 28.436   +32 21 28.36  .87291 .88040  54.9 22.3 3234  21
2024 06 12 21  09 33 30.971   +32 20 00.45  .87307 .88009  54.9 22.3 3268  21
2024 06 12 22  09 33 33.499   +32 18 32.58  .87324 .87978  54.9 22.3 3301  21
2024 06 12 23  09 33 36.021   +32 17 04.74  .87340 .87947  54.9 22.3 3335  21
2024 06 13 00  09 33 38.536   +32 15 36.93  .87357 .87916  54.8 22.3 3369  21
2024 06 13 01  09 33 41.046   +32 14 09.17  .87373 .87885  54.8 22.3 3403  21
2024 06 13 02  09 33 43.548   +32 12 41.43  .87389 .87854  54.8 22.3 3437  21
2024 06 13 03  09 33 46.045   +32 11 13.74  .87405 .87823  54.8 22.3 3472  21
2024 06 13 04  09 33 48.535   +32 09 46.08  .87422 .87792  54.7 22.3 3506  21
2024 06 13 05  09 33 51.019   +32 08 18.46  .87438 .87760  54.7 22.3 3541  21
2024 06 13 06  09 33 53.496   +32 06 50.87  .87454 .87729  54.7 22.3 3576  21
2024 06 13 07  09 33 55.967   +32 05 23.33  .87470 .87698  54.7 22.3 3611  21
2024 06 13 08  09 33 58.431   +32 03 55.81  .87486 .87666  54.6 22.3 3646  21
2024 06 13 09  09 34 00.890   +32 02 28.33  .87502 .87635  54.6 22.3 3681  21
2024 06 13 10  09 34 03.341   +32 01 00.89  .87518 .87603  54.6 22.3 3716  21
2024 06 13 11  09 34 05.787   +31 59 33.49  .87534 .87572  54.6 22.3 3752  22
2024 06 13 12  09 34 08.226   +31 58 06.12  .87550 .87540  54.5 22.3 3788  22
2024 06 13 13  09 34 10.659   +31 56 38.78  .87566 .87508  54.5 22.3 3824  22
2024 06 13 14  09 34 13.085   +31 55 11.49  .87582 .87477  54.5 22.3 3860  22
2024 06 13 15  09 34 15.505   +31 53 44.22  .87597 .87445  54.5 22.3 3896  22
2024 06 13 16  09 34 17.918   +31 52 17.00  .87613 .87413  54.4 22.3 3932  22
2024 06 13 17  09 34 20.326   +31 50 49.81  .87629 .87381  54.4 22.3 3969  22
2024 06 13 18  09 34 22.726   +31 49 22.65  .87645 .87349  54.4 22.3 4005  22
2024 06 13 19  09 34 25.121   +31 47 55.53  .87660 .87317  54.4 22.3 4042  22
2024 06 13 20  09 34 27.509   +31 46 28.45  .87676 .87285  54.3 22.3 4079  22
2024 06 13 21  09 34 29.891   +31 45 01.40  .87692 .87253  54.3 22.3 4116  22
2024 06 13 22  09 34 32.266   +31 43 34.38  .87707 .87221  54.3 22.3 4154  22
2024 06 13 23  09 34 34.635   +31 42 07.41  .87723 .87189  54.3 22.3 4191  22
2024 06 14 00  09 34 36.997   +31 40 40.46  .87738 .87156  54.2 22.3 4229  22
2024 06 14 01  09 34 39.353   +31 39 13.56  .87754 .87124  54.2 22.3 4267  22
2024 06 14 02  09 34 41.703   +31 37 46.68  .87769 .87092  54.2 22.3 4305  22
2024 06 14 03  09 34 44.047   +31 36 19.85  .87785 .87059  54.2 22.3 4343  22